FW2145 Weather Reports


Display with metric or nautical units.
time (UTC)temp
F
wind
direction
speed
MPH
gust
MPH
rain 1hr
in
rain 24hr
in
rain mn
in
humidity
%
barometer
mb
20260510071004 51 180 0.0 0.0 0.00 0.24 0.00 98 975.3
20260510070504 51 180 0.0 0.0 0.00 0.24 0.00 98 975.3
20260510065504 51 158 0.0 0.0 0.00 0.24 0.00 98 975.2
20260510064504 51 231 1.0 2.0 0.00 0.24 0.00 98 974.9
20260510064004 51 148 0.0 0.0 0.00 0.24 0.00 98 974.9
20260510063004 50 270 0.0 0.0 0.00 0.24 0.00 98 974.7
20260510062004 51 158 0.0 0.0 0.00 0.24 0.00 98 974.7
20260510061504 51 158 0.0 0.0 0.00 0.24 0.00 98 974.7
20260510061004 51 158 0.0 0.0 0.00 0.24 0.00 98 974.7
20260510060503 51 225 0.0 0.0 0.00 0.24 0.00 98 974.7
20260510060004 51 180 0.0 0.0 0.00 0.24 0.00 98 974.7
20260510055504 51 150 0.0 2.0 0.00 0.24 0.00 98 974.7
20260510054005 51 215 0.0 0.0 0.00 0.24 0.00 98 974.9
20260510053504 51 210 0.0 2.0 0.00 0.24 0.00 98 974.8
20260510053004 51 212 1.0 2.0 0.00 0.24 0.00 98 974.8
20260510052005 51 180 0.0 0.0 0.00 0.24 0.00 98 974.8
20260510051004 51 189 0.0 0.0 0.00 0.24 0.00 98 974.7
20260510050504 51 202 0.0 0.0 0.00 0.24 0.00 98 974.7
20260510050004 51 228 0.0 0.0 0.00 0.24 0.00 98 974.5
20260510045504 51 213 0.0 0.0 0.00 0.24 0.00 98 974.5
20260510045003 51 150 0.0 0.0 0.00 0.24 0.00 98 974.5
20260510044504 51 202 0.0 1.0 0.00 0.24 0.00 98 974.6
20260510044004 51 206 0.0 0.0 0.00 0.24 0.00 98 974.6
20260510043504 51 202 0.0 0.0 0.00 0.24 0.00 98 974.5
20260510043004 51 180 0.0 0.0 0.00 0.24 0.00 97 974.5
20260510042504 51 180 0.0 0.0 0.00 0.24 0.00 97 974.5
20260510042004 51 180 0.0 0.0 0.00 0.24 0.00 97 974.5
20260510041504 51 145 0.0 0.0 0.00 0.24 0.00 97 974.5
20260510041004 51 187 0.0 2.0 0.00 0.24 0.00 97 974.5
20260510040504 51 216 0.0 2.0 0.00 0.24 0.00 97 974.5
20260510040004 51 190 0.0 2.0 0.00 0.24 0.00 97 974.4
20260510035504 51 179 0.0 2.0 0.00 0.24 0.24 97 974.4
20260510034004 51 182 0.0 0.0 0.00 0.24 0.24 97 974.3
20260510033504 51 225 0.0 1.0 0.00 0.24 0.24 97 974.2
20260510033004 51 162 0.0 0.0 0.00 0.24 0.24 97 974.2
20260510032004 51 225 1.0 2.0 0.00 0.24 0.24 97 974.1
20260510031504 50 180 0.0 0.0 0.00 0.24 0.24 97 974.1
20260510031004 50 158 0.0 0.0 0.00 0.24 0.24 96 974.0
20260510030504 49 180 0.0 0.0 0.00 0.24 0.24 96 974.0
20260510030004 49 158 0.0 0.0 0.00 0.24 0.24 95 974.2
20260510025505 49 158 0.0 0.0 0.00 0.24 0.24 95 974.2
20260510025004 48 158 0.0 0.0 0.00 0.24 0.24 95 974.2
20260510024004 48 165 0.0 0.0 0.00 0.24 0.24 95 974.2
20260510023504 48 158 0.0 0.0 0.00 0.24 0.24 95 974.3
20260510023004 49 180 0.0 0.0 0.00 0.24 0.24 95 974.3
20260510022504 49 180 0.0 0.0 0.00 0.24 0.24 95 974.3
20260510022004 49 180 0.0 0.0 0.00 0.24 0.24 95 974.3
20260510021504 49 180 0.0 0.0 0.00 0.24 0.24 95 974.3
20260510021004 49 158 0.0 0.0 0.00 0.24 0.24 95 974.2
20260510020504 49 168 0.0 0.0 0.00 0.24 0.24 95 974.2
20260510020005 49 180 0.0 0.0 0.00 0.24 0.24 95 974.0
20260510015504 50 180 0.0 0.0 0.00 0.24 0.24 95 974.0
20260510015004 50 158 0.0 0.0 0.00 0.24 0.24 95 974.0
20260510014504 50 168 0.0 0.0 0.00 0.24 0.24 94 974.0
20260510014004 50 179 0.0 0.0 0.00 0.24 0.24 94 974.0
20260510013504 50 158 0.0 0.0 0.00 0.24 0.24 94 974.0
20260510013004 50 158 0.0 0.0 0.00 0.24 0.24 94 974.0
20260510012004 50 180 0.0 0.0 0.00 0.24 0.24 94 973.9
20260510011504 50 180 0.0 0.0 0.00 0.24 0.24 94 973.9
20260510011004 50 176 0.0 0.0 0.00 0.24 0.24 94 973.8
20260510010504 50 158 0.0 0.0 0.00 0.24 0.24 94 973.8
20260510010004 50 158 0.0 0.0 0.00 0.24 0.24 94 973.8
20260510005504 50 158 0.0 0.0 0.00 0.24 0.24 94 973.8
20260510005004 50 158 0.0 0.0 0.00 0.24 0.24 95 973.7
20260510004504 50 158 0.0 0.0 0.00 0.24 0.24 95 973.7
20260510004004 51 180 0.0 0.0 0.00 0.24 0.24 95 973.7
20260510003503 51 180 0.0 0.0 0.00 0.24 0.24 94 973.4
20260510003004 51 180 0.0 0.0 0.00 0.24 0.24 94 973.4
20260510002004 52 180 0.0 0.0 0.00 0.24 0.24 93 973.2
20260510001005 52 180 0.0 0.0 0.00 0.24 0.24 93 973.1
20260510000504 53 160 0.0 0.0 0.00 0.24 0.24 93 973.1
20260510000004 53 180 0.0 0.0 0.00 0.24 0.24 93 973.0
20260509235504 53 170 0.0 0.0 0.00 0.24 0.24 92 973.0
20260509235004 54 180 0.0 0.0 0.00 0.24 0.24 92 973.0
20260509234504 54 112 0.0 0.0 0.00 0.24 0.24 92 972.9
20260509233504 54 112 0.0 1.0 0.00 0.24 0.24 92 973.0
20260509232504 55 166 0.0 1.0 0.00 0.24 0.24 92 972.8
20260509232004 55 158 0.0 2.0 0.00 0.24 0.24 91 972.8
20260509231504 55 167 0.0 2.0 0.00 0.24 0.24 91 972.8
20260509230504 56 184 1.0 1.0 0.00 0.24 0.24 91 972.8
20260509230004 56 180 2.0 2.0 0.00 0.24 0.24 91 972.8
20260509225504 56 185 1.0 2.0 0.00 0.24 0.24 91 972.8
20260509225004 56 202 2.0 3.0 0.00 0.24 0.24 91 972.9
20260509224504 56 135 1.0 2.0 0.00 0.24 0.24 91 972.9
20260509224004 57 180 0.0 2.0 0.00 0.24 0.24 91 972.9
20260509223504 57 220 1.0 1.0 0.00 0.24 0.24 91 973.0
20260509223004 57 212 1.0 2.0 0.00 0.24 0.24 91 973.0
20260509222503 57 147 1.0 2.0 0.00 0.24 0.24 91 972.9
20260509222004 57 112 1.0 2.0 0.00 0.24 0.24 91 972.9
20260509221504 56 179 1.0 1.0 0.00 0.24 0.24 91 972.9
20260509220004 57 179 2.0 2.0 0.00 0.24 0.24 92 973.2
20260509215504 57 124 0.0 0.0 0.00 0.24 0.24 93 973.2
20260509214504 56 214 0.0 1.0 0.00 0.24 0.24 93 973.3
20260509214004 56 145 0.0 1.0 0.00 0.24 0.24 93 973.3
20260509213504 56 202 1.0 2.0 0.00 0.24 0.24 93 973.4
20260509213004 56 180 0.0 2.0 0.00 0.24 0.24 93 973.4
20260509212504 57 229 2.0 3.0 0.00 0.24 0.24 93 973.4
20260509212004 56 129 0.0 2.0 0.00 0.24 0.24 93 973.4
20260509211004 55 209 1.0 2.0 0.00 0.24 0.24 94 973.3
20260509210004 54 186 0.0 0.0 0.00 0.24 0.24 93 973.4
20260509205504 54 199 0.0 0.0 0.01 0.24 0.24 93 973.4
20260509204004 54 158 0.0 0.0 0.02 0.24 0.24 93 973.5
20260509203504 54 180 0.0 0.0 0.02 0.24 0.24 93 973.5
20260509203004 54 180 0.0 0.0 0.03 0.24 0.24 93 973.5
20260509202504 54 159 0.0 0.0 0.04 0.24 0.24 93 973.5
20260509202005 54 135 0.0 1.0 0.04 0.24 0.24 93 973.5
20260509201004 54 203 0.0 0.0 0.06 0.24 0.24 94 973.6
20260509200504 54 203 0.0 0.0 0.06 0.24 0.24 94 973.6
20260509200004 53 202 1.0 2.0 0.06 0.24 0.24 94 973.9
20260509195504 53 176 0.0 1.0 0.06 0.23 0.23 94 973.9
20260509195004 53 202 0.0 1.0 0.07 0.23 0.23 94 974.1
20260509194505 53 228 1.0 2.0 0.06 0.22 0.22 94 974.2
20260509194005 53 225 1.0 2.0 0.07 0.22 0.22 94 974.2
20260509193504 53 186 1.0 1.0 0.08 0.22 0.22 94 974.4
20260509193004 53 180 0.0 0.0 0.07 0.21 0.21 94 974.4
20260509192504 53 196 0.0 0.0 0.07 0.20 0.20 94 974.6
20260509191504 53 169 0.0 2.0 0.08 0.20 0.20 93 974.6
20260509191004 53 191 1.0 1.0 0.08 0.18 0.18 93 974.7
20260509190504 53 203 1.0 2.0 0.08 0.18 0.18 93 974.7
20260509190004 53 237 1.0 2.0 0.09 0.18 0.18 93 974.8
20260509185504 53 118 1.0 2.0 0.09 0.17 0.17 93 974.8
20260509185004 53 208 2.0 2.0 0.09 0.16 0.16 93 974.8
20260509184504 53 189 1.0 2.0 0.10 0.16 0.16 93 974.8
20260509184004 53 200 3.0 5.0 0.10 0.15 0.15 93 974.8
20260509183504 53 219 2.0 2.0 0.09 0.14 0.14 94 974.7
20260509183004 53 161 1.0 1.0 0.10 0.14 0.14 94 974.7
20260509182504 53 158 0.0 0.0 0.09 0.13 0.13 94 974.9
20260509182004 53 180 0.0 0.0 0.08 0.12 0.12 94 974.9
20260509181504 53 161 2.0 2.0 0.08 0.12 0.12 93 974.9
20260509181004 53 202 0.0 2.0 0.07 0.10 0.10 93 974.8
20260509180504 53 158 1.0 1.0 0.07 0.10 0.10 93 974.8
20260509180004 53 201 2.0 2.0 0.06 0.09 0.09 93 975.0
20260509175504 53 217 1.0 2.0 0.06 0.08 0.08 93 975.0
20260509175004 53 155 2.0 2.0 0.05 0.07 0.07 92 975.0
20260509174504 54 220 2.0 3.0 0.04 0.06 0.06 92 975.0
20260509174004 54 202 3.0 3.0 0.03 0.05 0.05 92 975.0
20260509173504 54 180 2.0 2.0 0.03 0.05 0.05 92 974.8
20260509173003 54 225 2.0 3.0 0.02 0.04 0.04 92 974.8
20260509172504 54 121 3.0 3.0 0.02 0.04 0.04 92 974.9
20260509172004 54 220 1.0 2.0 0.02 0.04 0.04 92 974.9
20260509171504 54 112 1.0 2.0 0.02 0.04 0.04 91 974.9
20260509171004 54 191 2.0 3.0 0.01 0.03 0.03 90 974.8
20260509170504 55 183 2.0 3.0 0.01 0.03 0.03 90 974.8
20260509170004 55 231 2.0 3.0 0.01 0.03 0.03 90 974.8
20260509165505 55 174 2.0 3.0 0.00 0.02 0.02 90 974.8
20260509165004 55 166 0.0 2.0 0.00 0.02 0.02 90 974.8
20260509164504 55 22 2.0 3.0 0.00 0.02 0.02 90 974.8
20260509164004 55 245 3.0 3.0 0.00 0.02 0.02 90 974.8
20260509163504 55 158 1.0 3.0 0.00 0.02 0.02 90 974.8
20260509163005 55 268 2.0 5.0 0.00 0.02 0.02 91 974.8
20260509162504 55 112 3.0 3.0 0.00 0.02 0.02 91 975.0
20260509162004 55 190 2.0 3.0 0.00 0.02 0.02 92 975.0
20260509161504 54 233 1.0 2.0 0.00 0.02 0.02 92 975.0
20260509161004 54 180 2.0 3.0 0.00 0.02 0.02 92 975.3
20260509160504 53 230 1.0 2.0 0.00 0.02 0.02 92 975.3
20260509160004 53 180 0.0 2.0 0.00 0.02 0.02 92 974.9
20260509155504 53 225 2.0 3.0 0.00 0.02 0.02 92 974.9
20260509155004 53 181 0.0 1.0 0.00 0.02 0.02 92 974.9
20260509154505 53 180 1.0 1.0 0.00 0.02 0.02 92 975.0
20260509154004 53 145 0.0 0.0 0.00 0.02 0.02 91 975.0
20260509153504 53 180 0.0 0.0 0.01 0.02 0.02 91 975.2
20260509153004 53 180 1.0 2.0 0.01 0.02 0.02 91 975.2
20260509152004 53 136 1.0 2.0 0.01 0.02 0.02 91 975.5
20260509151504 53 124 0.0 1.0 0.01 0.02 0.02 91 975.5
20260509150504 53 130 2.0 2.0 0.02 0.02 0.02 91 975.5
20260509150004 53 175 1.0 2.0 0.02 0.02 0.02 90 975.5
20260509145504 53 139 2.0 2.0 0.02 0.02 0.02 90 975.5
20260509145004 53 160 2.0 2.0 0.02 0.02 0.02 90 975.4
20260509144504 54 185 2.0 2.0 0.02 0.02 0.02 90 975.3
20260509144005 54 248 1.0 5.0 0.02 0.02 0.02 90 975.3
20260509142004 53 180 1.0 2.0 0.01 0.01 0.01 90 975.2
20260509141504 53 154 0.0 2.0 0.01 0.01 0.01 90 975.2
20260509141004 53 90 1.0 1.0 0.01 0.01 0.01 90 975.1
20260509140504 53 180 0.0 0.0 0.00 0.00 0.00 90 975.1
20260509140005 53 202 0.0 0.0 0.00 0.00 0.00 90 975.0
20260509135504 53 205 0.0 1.0 0.00 0.00 0.00 90 975.0
20260509134504 52 225 0.0 2.0 0.00 0.00 0.00 90 974.9
20260509134004 52 88 1.0 2.0 0.00 0.00 0.00 91 974.9
20260509133504 52 99 1.0 2.0 0.00 0.00 0.00 91 975.1
20260509132504 52 149 0.0 1.0 0.00 0.00 0.00 91 975.2
20260509132003 52 56 2.0 2.0 0.00 0.00 0.00 91 975.2
20260509131504 51 201 1.0 1.0 0.00 0.00 0.00 91 975.2
20260509131004 52 112 1.0 2.0 0.00 0.00 0.00 91 975.4
20260509130504 52 112 0.0 0.0 0.00 0.00 0.00 90 975.4
20260509130004 51 230 0.0 2.0 0.00 0.00 0.00 90 975.4
20260509125004 51 169 0.0 0.0 0.00 0.00 0.00 91 975.4
20260509124004 51 135 0.0 0.0 0.00 0.00 0.00 93 975.4
20260509122504 50 192 0.0 0.0 0.00 0.00 0.00 94 975.5
20260509122004 50 158 0.0 0.0 0.00 0.00 0.00 95 975.5
20260509121004 49 112 0.0 0.0 0.00 0.00 0.00 95 975.5
20260509120504 49 112 0.0 0.0 0.00 0.00 0.00 95 975.5
20260509120004 49 158 0.0 0.0 0.00 0.00 0.00 95 975.5
20260509115004 48 180 0.0 2.0 0.00 0.00 0.00 95 974.9
20260509114504 48 184 0.0 0.0 0.00 0.00 0.00 95 974.9
20260509114004 48 180 0.0 0.0 0.00 0.00 0.00 95 974.9
20260509112504 48 202 0.0 0.0 0.00 0.00 0.00 95 975.0
20260509112004 47 202 0.0 0.0 0.00 0.00 0.00 95 975.0
20260509111504 47 189 0.0 0.0 0.00 0.00 0.00 95 975.0
20260509111004 47 189 0.0 0.0 0.00 0.00 0.00 95 974.9
20260509110504 47 197 0.0 0.0 0.00 0.00 0.00 95 974.9
20260509110004 47 150 0.0 0.0 0.00 0.00 0.00 95 975.1
20260509105504 47 140 0.0 0.0 0.00 0.00 0.00 95 975.1
20260509104504 46 180 0.0 0.0 0.00 0.00 0.00 95 975.3
20260509104004 46 180 0.0 0.0 0.00 0.00 0.00 95 975.3
20260509103504 46 217 0.0 0.0 0.00 0.00 0.00 95 975.1
20260509103004 46 180 0.0 0.0 0.00 0.00 0.00 95 975.1
20260509102504 46 195 0.0 0.0 0.00 0.00 0.00 95 975.1
20260509102004 46 180 0.0 0.0 0.00 0.00 0.00 95 975.1
20260509101004 46 202 0.0 0.0 0.00 0.00 0.00 95 975.2
20260509100504 46 180 0.0 0.0 0.00 0.00 0.00 95 975.2
20260509100005 46 180 0.0 0.0 0.00 0.00 0.00 95 975.2
20260509095504 46 180 0.0 0.0 0.00 0.00 0.00 95 975.2
20260509095004 46 180 0.0 0.0 0.00 0.00 0.00 95 975.2
20260509094504 46 180 0.0 0.0 0.00 0.00 0.00 95 975.2
20260509094004 46 180 0.0 0.0 0.00 0.00 0.00 95 975.2
20260509093504 46 180 0.0 0.0 0.00 0.00 0.00 95 975.2
20260509093004 46 202 0.0 0.0 0.00 0.00 0.00 95 975.2
20260509092504 46 202 0.0 0.0 0.00 0.00 0.00 95 975.3
20260509091504 46 202 0.0 0.0 0.00 0.00 0.00 95 975.3
20260509090504 46 202 0.0 0.0 0.00 0.00 0.00 95 975.4
20260509090004 46 192 0.0 0.0 0.00 0.00 0.00 95 975.4
20260509085504 46 180 0.0 0.0 0.00 0.00 0.00 95 975.4
20260509085004 46 158 0.0 0.0 0.00 0.00 0.00 95 975.5
20260509084504 46 158 0.0 0.0 0.00 0.00 0.00 95 975.5
20260509083504 46 158 0.0 0.0 0.00 0.00 0.00 95 975.6
20260509083004 46 158 0.0 2.0 0.00 0.00 0.00 95 975.6
20260509082504 46 162 0.0 2.0 0.00 0.00 0.00 95 975.7
20260509082004 46 180 0.0 0.0 0.00 0.00 0.00 95 975.7
20260509081504 46 180 0.0 0.0 0.00 0.00 0.00 94 975.7
20260509081005 46 180 0.0 0.0 0.00 0.00 0.00 94 975.7
20260509080004 46 202 0.0 0.0 0.00 0.00 0.00 94 975.6
20260509075504 46 180 0.0 0.0 0.00 0.00 0.00 94 975.6
20260509075004 46 180 0.0 0.0 0.00 0.00 0.00 94 975.6
20260509074504 46 180 0.0 0.0 0.00 0.00 0.00 94 975.6
20260509073504 46 180 0.0 0.0 0.00 0.00 0.00 94 975.6
20260509073004 46 180 0.0 0.0 0.00 0.00 0.00 94 975.6
20260509072504 46 180 0.0 0.0 0.00 0.00 0.00 94 975.7
20260509072004 46 202 0.0 0.0 0.00 0.00 0.00 94 975.7
20260509071504 47 180 0.0 0.0 0.00 0.00 0.00 94 975.7